FW7771 Weather Reports


Display with metric or nautical units.
time (UTC)temp
F
wind
direction
speed
MPH
gust
MPH
rain 1hr
in
rain 24hr
in
rain mn
in
humidity
%
barometer
mb
20260504120130 56 225 13.0 19.0 0.00 0.00 0.00 55 998.1
20260504081604 52 175 6.0 10.0 0.00 0.00 0.00 57 998.5
20260504050106 50 185 2.0 4.0 0.00 0.00 0.00 55 1002.1
20260504044600 50 185 1.0 4.0 0.00 0.00 0.00 56 1002.3
20260504043113 52 178 1.0 4.0 0.00 0.00 0.00 52 1002.6
20260504041559 54 205 3.0 5.0 0.00 0.00 0.00 48 1002.7
20260504040058 55 204 1.0 6.0 0.00 0.00 0.00 48 1003.0
20260504034600 56 0 2.0 5.0 0.00 0.00 0.00 47 1003.3
20260504033128 55 184 2.0 6.0 0.00 0.00 0.00 49 1003.5
20260504031600 55 207 0.0 4.0 0.00 0.00 0.00 50 1003.6
20260504030115 55 0 0.0 5.0 0.00 0.00 0.00 49 1004.0
20260504024601 56 0 0.0 2.0 0.00 0.00 0.00 49 1004.1
20260504023058 58 0 0.0 2.0 0.00 0.00 0.00 47 1004.2
20260504021600 60 0 1.0 3.0 0.00 0.00 0.00 45 1004.3
20260504020106 60 249 0.0 2.0 0.00 0.00 0.00 40 1004.4
20260504014605 61 0 0.0 0.0 0.00 0.00 0.00 39 1004.5
20260504013059 62 0 0.0 2.0 0.00 0.00 0.00 38 1004.6
20260504011558 63 285 1.0 2.0 0.00 0.00 0.00 36 1004.6
20260504004558 66 270 2.0 7.0 0.00 0.00 0.00 33 1004.8
20260504003104 68 277 6.0 12.0 0.00 0.00 0.00 31 1005.0
20260504001601 69 273 7.0 11.0 0.00 0.00 0.00 29 1005.1
20260504000104 69 260 11.0 17.0 0.00 0.00 0.00 27 1005.3
20260503234559 70 277 12.0 20.0 0.00 0.00 0.00 27 1005.5
20260503233102 70 300 14.0 21.0 0.00 0.00 0.00 30 1005.6
20260503231559 70 259 12.0 20.0 0.00 0.00 0.00 30 1005.8
20260503230113 71 270 14.0 21.0 0.00 0.00 0.00 30 1005.7
20260503224602 71 276 11.0 19.0 0.00 0.00 0.00 31 1005.9
20260503223112 71 279 13.0 20.0 0.00 0.00 0.00 30 1005.9
20260503221559 71 295 10.0 24.0 0.00 0.00 0.00 31 1006.0
20260503220058 71 289 15.0 25.0 0.00 0.00 0.00 30 1006.1
20260503214600 71 291 18.0 28.0 0.00 0.00 0.00 29 1006.1
20260503213100 71 279 17.0 25.0 0.00 0.00 0.00 31 1006.4
20260503211602 71 288 16.0 21.0 0.00 0.00 0.00 30 1006.5
20260503210059 71 302 13.0 33.0 0.00 0.00 0.00 31 1006.6
20260503204600 70 320 13.0 25.0 0.00 0.00 0.00 33 1006.7
20260503203059 70 340 15.0 25.0 0.00 0.00 0.00 33 1007.0
20260503201602 70 317 19.0 26.0 0.00 0.00 0.00 31 1007.2
20260503200100 70 327 17.0 23.0 0.00 0.00 0.00 33 1007.2
20260503194624 69 270 16.0 28.0 0.00 0.00 0.00 36 1007.6
20260503193101 70 321 17.0 27.0 0.00 0.00 0.00 33 1007.5
20260503191613 69 328 21.0 30.0 0.00 0.00 0.00 33 1007.6
20260503190100 68 326 19.0 26.0 0.00 0.00 0.00 35 1007.8
20260503184600 68 288 16.0 27.0 0.00 0.00 0.00 35 1007.8
20260503183106 68 298 20.0 27.0 0.00 0.00 0.00 36 1008.0
20260503181609 68 324 16.0 26.0 0.00 0.00 0.00 38 1008.1
20260503174616 67 299 14.0 29.0 0.00 0.00 0.00 38 1008.4
20260503173110 67 305 16.0 28.0 0.00 0.00 0.00 38 1008.6
20260503171601 67 320 17.0 26.0 0.00 0.00 0.00 38 1008.6
20260503170113 66 311 18.0 27.0 0.00 0.00 0.00 36 1008.8